Location: Marsån
(66.4167°N, 22.2833°E)
Time: 08:45:05
(UTC+00:00)

CZ-4B R/B - Pass Details

Date: 24 February 2024
Orbit: 808 x 881 km, 99.0° (Epoch: 20 April)

Event Time Altitude Azimuth Distance (km) Brightness Sun altitude
Rises 16:21:46 0° 134° (SE) 3,381 6.0 -6.5°
Reaches altitude 10° 16:24:08 10° 130° (SE) 2,460 5.2 -6.7°
Maximum altitude 16:29:27 56° 54° (NE) 1,010 3.4 -7.2°
Drops below altitude 10° 16:34:54 10° 338° (NNW) 2,519 5.9 -7.8°
Sets 16:37:20 0° 334° (NNW) 3,468 6.7 -8.0°
